Location: Newark
(43.0000°N, 1.6781°W)
Time: 19:44:08
(UTC+00:00)

Courier 1B Rocket - Pass Details

Date: 25 April 2021
Orbit: 920 x 1202 km, 28.3° (Epoch: 13 May)

Event Time Altitude Azimuth Distance (km) Brightness Sun altitude
Rises 21:18:00 0° 252° (WSW) 3,677 8.4 -21.9°
Reaches altitude 10° 21:21:34 10° 233° (SW) 2,778 7.4 -22.3°
Enters shadow 21:25:27 17° 197° (SSW) 2,335 6.7 -22.8°
